Date String (YYYY-MM-DD hh:mm:ss) UTC,Instrument flags,Ambient pressure (hPa),Sample flow (lpm),Bypass flow (lpm),Sample temperature (°C),Ambient temperature (°C),ASC tube jacket temperature (°C),LED temperature (°C),Box temperature (°C),Sample RH (%),Span deviation,Mass concentration (μg/m³),Mass concentration (μg/m³),Mass concentration (μg/m³)
DateTimeUTC,F1_M11,P_M11,Q1_M11,Q2_M11,T1_M11,T2_M11,T3_M11,T4_M11,T5_M11,U1_M11,ZSPAN_M11,X0_M11,X2_M11,X1_M11
2021-10-16 20:00:00,,0833.7,5.01,0.00,30.9,30.2,00.0,39.8,32.6,08.7,0000.0,0008.24,0003.30,0002.63
2021-10-16 20:01:00,,0833.7,4.99,0.00,30.9,30.2,00.0,39.9,32.6,08.6,0000.0,0008.44,0003.35,0002.69
2021-10-16 20:02:00,,0833.7,4.99,0.00,30.9,30.2,00.0,39.9,32.6,08.6,0000.0,0008.37,0003.35,0002.71
2021-10-16 20:03:00,,0833.7,5.01,0.00,30.9,30.2,00.0,39.9,32.7,08.5,0000.0,0008.20,0003.36,0002.73
2021-10-16 20:04:00,,0833.7,5.01,0.00,30.9,30.2,00.0,39.9,32.7,08.5,0000.0,0008.24,0003.38,0002.76
2021-10-16 20:05:00,,0833.7,5.00,0.00,30.9,30.2,00.0,39.9,32.7,08.6,0000.0,0008.25,0003.38,0002.79
2021-10-16 20:06:00,,0833.7,5.00,0.00,30.9,30.2,00.0,40.0,32.7,08.7,0000.0,0008.37,0003.41,0002.83
2021-10-16 20:07:00,,0833.7,4.99,0.00,31.0,30.3,00.0,40.0,32.7,08.7,0000.0,0007.88,0003.46,0002.87
2021-10-16 20:08:00,,0833.7,5.00,0.00,31.0,29.4,00.0,40.0,32.5,08.8,0000.0,0006.51,0003.48,0002.90
2021-10-16 20:09:00,,0833.7,5.00,0.00,30.8,27.2,00.0,39.9,31.9,08.9,0000.0,0006.50,0003.50,0002.92
2021-10-16 20:10:00,,0833.7,5.01,0.00,30.6,26.7,00.0,39.9,31.7,08.9,0000.0,0006.77,0003.56,0002.97
2021-10-16 20:11:00,,0833.7,5.00,0.00,30.5,27.0,00.0,39.8,31.7,09.0,0000.0,0006.77,0003.59,0002.99
2021-10-16 20:12:00,,0833.7,5.00,0.00,30.4,27.4,00.0,39.7,31.8,09.0,0000.0,0006.55,0003.62,0003.01
2021-10-16 20:13:00,,0833.7,5.00,0.00,30.4,27.9,00.0,39.7,31.9,09.0,0000.0,0006.75,0003.65,0003.05
2021-10-16 20:14:00,,0833.7,4.99,0.00,30.4,28.2,00.0,39.7,32.0,09.0,0000.0,0008.17,0003.63,0003.08
2021-10-16 20:15:00,,0833.6,5.01,0.00,30.4,28.6,00.0,39.6,32.0,09.0,0000.0,0008.42,0003.69,0003.12
2021-10-16 20:16:00,,0833.6,5.01,0.00,30.4,28.8,00.0,39.6,32.0,09.0,0000.0,0008.60,0003.73,0003.14
2021-10-16 20:17:00,,0833.6,4.99,0.00,30.4,29.0,00.0,39.6,32.1,09.0,0000.0,0008.66,0003.74,0003.15
2021-10-16 20:18:00,,0833.6,5.00,0.00,30.4,29.2,00.0,39.6,32.1,09.0,0000.0,0008.84,0003.75,0003.16
2021-10-16 20:19:00,,0833.6,5.00,0.00,30.5,29.4,00.0,39.6,32.2,09.0,0000.0,0009.01,0003.76,0003.17
2021-10-16 20:20:00,,0833.6,4.99,0.00,30.5,29.5,00.0,39.6,32.2,09.0,0000.0,0009.10,0003.80,0003.18
2021-10-16 20:21:00,,0833.6,5.00,0.00,30.5,29.6,00.0,39.6,32.3,09.0,0000.0,0009.07,0003.80,0003.18
2021-10-16 20:22:00,,0833.6,5.02,0.00,30.5,29.6,00.0,39.6,32.3,09.0,0000.0,0008.99,0003.79,0003.18
2021-10-16 20:23:00,,0833.6,5.00,0.00,30.5,29.7,00.0,39.6,32.3,09.0,0000.0,0009.07,0003.81,0003.19
2021-10-16 20:24:00,,0833.6,4.99,0.00,30.6,29.8,00.0,39.6,32.3,08.9,0000.0,0009.08,0003.83,0003.19
2021-10-16 20:25:00,,0833.6,5.00,0.00,30.6,29.8,00.0,39.6,32.4,08.9,0000.0,0008.07,0003.88,0003.20
2021-10-16 20:26:00,,0833.6,4.99,0.00,30.6,29.8,00.0,39.6,32.4,08.9,0000.0,0007.90,0003.90,0003.20
2021-10-16 20:27:00,,0833.6,5.00,0.00,30.6,29.9,00.0,39.7,32.4,08.8,0000.0,0007.96,0003.93,0003.21
2021-10-16 20:28:00,,0833.6,5.00,0.00,30.7,29.9,00.0,39.7,32.4,08.9,0000.0,0007.94,0003.94,0003.20
2021-10-16 20:29:00,,0833.6,5.01,0.00,30.7,29.9,00.0,39.7,32.5,08.8,0000.0,0007.71,0003.92,0003.19
2021-10-16 20:30:00,,0833.6,4.99,0.00,30.7,30.0,00.0,39.7,32.5,08.9,0000.0,0007.81,0003.91,0003.19
2021-10-16 20:31:00,,0833.6,5.01,0.00,30.7,30.0,00.0,39.7,32.5,08.8,0000.0,0008.08,0003.90,0003.19
2021-10-16 20:32:00,,0833.6,5.00,0.00,30.7,30.0,00.0,39.7,32.5,08.8,0000.0,0008.36,0003.88,0003.19
2021-10-16 20:33:00,,0833.6,5.00,0.00,30.8,30.0,00.0,39.7,32.6,08.7,0000.0,0008.87,0003.83,0003.16
2021-10-16 20:34:00,,0833.5,5.00,0.00,30.8,30.1,00.0,39.8,32.6,08.8,0000.0,0009.35,0003.79,0003.14
2021-10-16 20:35:00,,0833.5,5.00,0.00,30.8,30.1,00.0,39.8,32.6,08.8,0000.0,0009.68,0003.76,0003.13
2021-10-16 20:36:00,,0833.5,5.00,0.00,30.8,30.2,00.0,39.8,32.6,08.8,0000.0,0009.68,0003.70,0003.11
2021-10-16 20:37:00,,0833.5,5.00,0.00,30.9,30.1,00.0,39.8,32.6,08.8,0000.0,0009.68,0003.65,0003.09
2021-10-16 20:38:00,,0833.5,5.00,0.00,30.8,28.7,00.0,39.8,32.3,08.8,0000.0,0009.49,0003.60,0003.05
2021-10-16 20:39:00,,0833.5,5.00,0.00,30.6,26.7,00.0,39.8,31.7,08.8,0000.0,0009.72,0003.63,0003.06
2021-10-16 20:40:00,,0833.5,5.00,0.00,30.5,26.4,00.0,39.7,31.6,09.0,0000.0,0009.93,0003.66,0003.07
2021-10-16 20:41:00,,0833.5,5.00,0.00,30.4,26.8,00.0,39.7,31.7,09.0,0000.0,0009.63,0003.65,0003.06
2021-10-16 20:42:00,,0833.4,5.00,0.00,30.3,27.3,00.0,39.6,31.7,08.9,0000.0,0009.39,0003.63,0003.06
2021-10-16 20:43:00,,0833.4,4.99,0.00,30.3,27.8,00.0,39.5,31.8,09.0,0000.0,0009.39,0003.63,0003.04
2021-10-16 20:44:00,,0833.4,5.00,0.00,30.3,28.2,00.0,39.5,31.9,09.1,0000.0,0008.89,0003.64,0003.05
2021-10-16 20:45:00,,0833.4,5.00,0.00,30.3,28.5,00.0,39.5,31.9,09.1,0000.0,0008.32,0003.63,0003.06
2021-10-16 20:46:00,,0833.4,4.99,0.00,30.3,28.7,00.0,39.5,32.0,09.1,0000.0,0007.93,0003.62,0003.06
2021-10-16 20:47:00,,0833.4,5.01,0.00,30.3,29.0,00.0,39.5,32.0,09.0,0000.0,0007.91,0003.63,0003.07
2021-10-16 20:48:00,,0833.4,4.99,0.00,30.3,29.1,00.0,39.5,32.1,09.1,0000.0,0007.71,0003.63,0003.08
2021-10-16 20:49:00,,0833.4,5.00,0.00,30.4,29.3,00.0,39.5,32.1,09.0,0000.0,0008.49,0003.65,0003.11
2021-10-16 20:50:00,,0833.4,5.01,0.00,30.4,29.4,00.0,39.5,32.1,08.9,0000.0,0008.90,0003.62,0003.10
2021-10-16 20:51:00,,0833.4,5.00,0.00,30.4,29.5,00.0,39.5,32.2,09.0,0000.0,0009.08,0003.61,0003.08
2021-10-16 20:52:00,,0833.4,5.00,0.00,30.5,29.6,00.0,39.5,32.3,08.9,0000.0,0009.51,0003.61,0003.09
2021-10-16 20:53:00,,0833.4,5.01,0.00,30.5,29.7,00.0,39.5,32.3,08.9,0000.0,0009.55,0003.60,0003.11
2021-10-16 20:54:00,,0833.4,4.99,0.00,30.5,29.7,00.0,39.5,32.3,08.9,0000.0,0009.52,0003.62,0003.13
2021-10-16 20:55:00,,0833.4,5.00,0.00,30.6,29.8,00.0,39.5,32.3,08.9,0000.0,0009.42,0003.64,0003.16
2021-10-16 20:56:00,,0833.4,4.99,0.00,30.6,29.9,00.0,39.5,32.4,08.9,0000.0,0009.38,0003.67,0003.18
2021-10-16 20:57:00,,0833.4,4.99,0.00,30.6,29.9,00.0,39.6,32.4,08.9,0000.0,0009.42,0003.69,0003.21
2021-10-16 20:58:00,,0833.4,5.01,0.00,30.6,30.0,00.0,39.6,32.5,09.0,0000.0,0009.40,0003.70,0003.22
2021-10-16 20:59:00,,0833.5,4.98,0.00,30.7,30.0,00.0,39.6,32.5,08.9,0000.0,0009.47,0003.72,0003.24
